Year,Month,Day,Hour,Minute,Value (Times are PST for temperature in C)
2015,06,27,00,00,19.20
2015,06,27,00,01,19.20
2015,06,27,00,02,19.20
2015,06,27,00,03,19.20
2015,06,27,00,04,19.20
2015,06,27,00,05,19.10
2015,06,27,00,06,19.10
2015,06,27,00,07,19.10
2015,06,27,00,08,19.10
2015,06,27,00,09,19.00
2015,06,27,00,10,19.00
2015,06,27,00,11,18.90
2015,06,27,00,12,18.90
2015,06,27,00,13,18.90
2015,06,27,00,14,18.90
2015,06,27,00,15,18.90
2015,06,27,00,16,18.90
2015,06,27,00,17,18.90
2015,06,27,00,18,18.80
2015,06,27,00,19,18.80
2015,06,27,00,20,18.80
2015,06,27,00,21,18.80
2015,06,27,00,22,18.80
2015,06,27,00,23,18.80
2015,06,27,00,24,18.80
2015,06,27,00,25,18.80
2015,06,27,00,26,18.80
2015,06,27,00,27,18.80
2015,06,27,00,28,18.70
2015,06,27,00,29,18.70
2015,06,27,00,30,18.70
2015,06,27,00,31,18.70
2015,06,27,00,32,18.70
2015,06,27,00,33,18.70
2015,06,27,00,34,18.70
2015,06,27,00,35,18.70
2015,06,27,00,36,18.70
2015,06,27,00,37,18.70
2015,06,27,00,38,18.60
2015,06,27,00,39,18.60
2015,06,27,00,40,18.60
2015,06,27,00,41,18.60
2015,06,27,00,42,18.60
2015,06,27,00,43,18.50
2015,06,27,00,44,18.50
2015,06,27,00,45,18.40
2015,06,27,00,46,18.40
2015,06,27,00,47,18.40
2015,06,27,00,48,18.30
2015,06,27,00,49,18.30
2015,06,27,00,50,18.30
2015,06,27,00,51,18.30
2015,06,27,00,52,18.30
2015,06,27,00,53,18.30
2015,06,27,00,54,18.30
2015,06,27,00,55,18.30
2015,06,27,00,56,18.30
2015,06,27,00,57,18.30
2015,06,27,00,58,18.30
2015,06,27,00,59,18.30
2015,06,27,01,00,18.20
2015,06,27,01,01,18.20
2015,06,27,01,02,18.20
2015,06,27,01,03,18.20
2015,06,27,01,04,18.20
2015,06,27,01,05,18.10
2015,06,27,01,06,18.10
2015,06,27,01,07,18.10
2015,06,27,01,08,18.10
2015,06,27,01,09,18.00
2015,06,27,01,10,18.00
2015,06,27,01,11,17.90
2015,06,27,01,12,17.90
2015,06,27,01,13,17.90
2015,06,27,01,14,17.90
2015,06,27,01,15,17.90
2015,06,27,01,16,17.80
2015,06,27,01,17,17.80
2015,06,27,01,18,17.80
2015,06,27,01,19,17.80
2015,06,27,01,20,17.80
2015,06,27,01,21,17.80
2015,06,27,01,22,17.80
2015,06,27,01,23,17.80
2015,06,27,01,24,17.80
2015,06,27,01,25,17.80
2015,06,27,01,26,17.80
2015,06,27,01,27,17.80
2015,06,27,01,28,17.80
2015,06,27,01,29,17.80
2015,06,27,01,30,17.80
2015,06,27,01,31,17.80
2015,06,27,01,32,17.80
2015,06,27,01,33,17.80
2015,06,27,01,34,17.70
2015,06,27,01,35,17.70
2015,06,27,01,36,17.70
2015,06,27,01,37,17.70
2015,06,27,01,38,17.70
2015,06,27,01,39,17.70
2015,06,27,01,40,17.70
2015,06,27,01,41,17.70
2015,06,27,01,42,17.70
2015,06,27,01,43,17.70
2015,06,27,01,44,17.70
2015,06,27,01,45,17.70
2015,06,27,01,46,17.70
2015,06,27,01,47,17.70
2015,06,27,01,48,17.70
2015,06,27,01,49,17.70
2015,06,27,01,50,17.70
2015,06,27,01,51,17.60
2015,06,27,01,52,17.60
2015,06,27,01,53,17.60
2015,06,27,01,54,17.60
2015,06,27,01,55,17.60
2015,06,27,01,56,17.50
2015,06,27,01,57,17.50
2015,06,27,01,58,17.50
2015,06,27,01,59,17.50
2015,06,27,02,00,17.40
2015,06,27,02,01,17.40
2015,06,27,02,02,17.40
2015,06,27,02,03,17.40
2015,06,27,02,04,17.30
2015,06,27,02,05,17.30
2015,06,27,02,06,17.30
2015,06,27,02,07,17.30
2015,06,27,02,08,17.30
2015,06,27,02,09,17.30
2015,06,27,02,10,17.30
2015,06,27,02,11,17.30
2015,06,27,02,12,17.30
2015,06,27,02,13,17.20
2015,06,27,02,14,17.20
2015,06,27,02,15,17.20
2015,06,27,02,16,17.20
2015,06,27,02,17,17.20
2015,06,27,02,18,17.20
2015,06,27,02,19,17.10
2015,06,27,02,20,17.10
2015,06,27,02,21,17.10
2015,06,27,02,22,17.10
2015,06,27,02,23,17.10
2015,06,27,02,24,17.10
2015,06,27,02,25,17.10
2015,06,27,02,26,17.00
2015,06,27,02,27,17.00
2015,06,27,02,28,17.00
2015,06,27,02,29,17.00
2015,06,27,02,30,17.00
2015,06,27,02,31,17.00
2015,06,27,02,32,17.00
2015,06,27,02,33,17.00
2015,06,27,02,34,17.00
2015,06,27,02,35,16.90
2015,06,27,02,36,16.90
2015,06,27,02,37,16.90
2015,06,27,02,38,16.90
2015,06,27,02,39,16.90
2015,06,27,02,40,16.90
2015,06,27,02,41,16.80
2015,06,27,02,42,16.80
2015,06,27,02,43,16.80
2015,06,27,02,44,16.80
2015,06,27,02,45,16.80
2015,06,27,02,46,16.80
2015,06,27,02,47,16.80
2015,06,27,02,48,16.80
2015,06,27,02,49,16.70
2015,06,27,02,50,16.70
2015,06,27,02,51,16.70
2015,06,27,02,52,16.70
2015,06,27,02,53,16.70
2015,06,27,02,54,16.60
2015,06,27,02,55,16.60
2015,06,27,02,56,16.60
2015,06,27,02,57,16.60
2015,06,27,02,58,16.60
2015,06,27,02,59,16.60
2015,06,27,03,00,16.60
2015,06,27,03,01,16.60
2015,06,27,03,02,16.60
2015,06,27,03,03,16.60
2015,06,27,03,04,16.60
2015,06,27,03,05,16.50
2015,06,27,03,06,16.50
2015,06,27,03,07,16.50
2015,06,27,03,08,16.50
2015,06,27,03,09,16.50
2015,06,27,03,10,16.50
2015,06,27,03,11,16.40
2015,06,27,03,12,16.40
2015,06,27,03,13,16.40
2015,06,27,03,14,16.40
2015,06,27,03,15,16.40
2015,06,27,03,16,16.40
2015,06,27,03,17,16.40
2015,06,27,03,18,16.40
2015,06,27,03,19,16.40
2015,06,27,03,20,16.40
2015,06,27,03,21,16.40
2015,06,27,03,22,16.40
2015,06,27,03,23,16.40
2015,06,27,03,24,16.40
2015,06,27,03,25,16.40
2015,06,27,03,26,16.40
2015,06,27,03,27,16.40
2015,06,27,03,28,16.30
2015,06,27,03,29,16.30
2015,06,27,03,30,16.30
2015,06,27,03,31,16.30
2015,06,27,03,32,16.30
2015,06,27,03,33,16.30
2015,06,27,03,34,16.30
2015,06,27,03,35,16.30
2015,06,27,03,36,16.30
2015,06,27,03,37,16.30
2015,06,27,03,38,16.20
2015,06,27,03,39,16.20
2015,06,27,03,40,16.20
2015,06,27,03,41,16.20
2015,06,27,03,42,16.20
2015,06,27,03,43,16.20
2015,06,27,03,44,16.20
2015,06,27,03,45,16.20
2015,06,27,03,46,16.20
2015,06,27,03,47,16.10
2015,06,27,03,48,16.10
2015,06,27,03,49,16.10
2015,06,27,03,50,16.10
2015,06,27,03,51,16.10
2015,06,27,03,52,16.10
2015,06,27,03,53,16.10
2015,06,27,03,54,16.10
2015,06,27,03,55,16.10
2015,06,27,03,56,16.00
2015,06,27,03,57,16.00
2015,06,27,03,58,16.00
2015,06,27,03,59,16.00
2015,06,27,04,00,16.00
2015,06,27,04,01,15.90
2015,06,27,04,02,15.90
2015,06,27,04,03,15.90
2015,06,27,04,04,15.90
2015,06,27,04,05,15.90
2015,06,27,04,06,15.90
2015,06,27,04,07,15.90
2015,06,27,04,08,15.90
2015,06,27,04,09,15.80
2015,06,27,04,10,15.80
2015,06,27,04,11,15.80
2015,06,27,04,12,15.80
2015,06,27,04,13,15.80
2015,06,27,04,14,15.80
2015,06,27,04,15,15.80
2015,06,27,04,16,15.80
2015,06,27,04,17,15.80
2015,06,27,04,18,15.80
2015,06,27,04,19,15.80
2015,06,27,04,20,15.80
2015,06,27,04,21,15.80
2015,06,27,04,22,15.80
2015,06,27,04,23,15.80
2015,06,27,04,24,15.80
2015,06,27,04,25,15.80
2015,06,27,04,26,15.80
2015,06,27,04,27,15.80
2015,06,27,04,28,15.80
2015,06,27,04,29,15.80
2015,06,27,04,30,15.80
2015,06,27,04,31,15.80
2015,06,27,04,32,15.80
2015,06,27,04,33,15.70
2015,06,27,04,34,15.70
2015,06,27,04,35,15.70
2015,06,27,04,36,15.70
2015,06,27,04,37,15.70
2015,06,27,04,38,15.70
2015,06,27,04,39,15.70
2015,06,27,04,40,15.60
2015,06,27,04,41,15.60
2015,06,27,04,42,15.60
2015,06,27,04,43,15.60
2015,06,27,04,44,15.60
2015,06,27,04,45,15.60
2015,06,27,04,46,15.50
2015,06,27,04,47,15.50
2015,06,27,04,48,15.50
2015,06,27,04,49,15.50
2015,06,27,04,50,15.40
2015,06,27,04,51,15.40
2015,06,27,04,52,15.40
2015,06,27,04,53,15.40
2015,06,27,04,54,15.40
2015,06,27,04,55,15.40
2015,06,27,04,56,15.40
2015,06,27,04,57,15.40
2015,06,27,04,58,15.40
2015,06,27,04,59,15.40
2015,06,27,05,00,15.40
2015,06,27,05,01,15.40
2015,06,27,05,02,15.40
2015,06,27,05,03,15.40
2015,06,27,05,04,15.40
2015,06,27,05,05,15.40
2015,06,27,05,06,15.40
2015,06,27,05,07,15.40
2015,06,27,05,08,15.30
2015,06,27,05,09,15.30
2015,06,27,05,10,15.30
2015,06,27,05,11,15.30
2015,06,27,05,12,15.30
2015,06,27,05,13,15.30
2015,06,27,05,14,15.30
2015,06,27,05,15,15.30
2015,06,27,05,16,15.30
2015,06,27,05,17,15.30
2015,06,27,05,18,15.30
2015,06,27,05,19,15.30
2015,06,27,05,20,15.30
2015,06,27,05,21,15.30
2015,06,27,05,22,15.20
2015,06,27,05,23,15.20
2015,06,27,05,24,15.20
2015,06,27,05,25,15.20
2015,06,27,05,26,15.20
2015,06,27,05,27,15.20
2015,06,27,05,28,15.20
2015,06,27,05,29,15.20
2015,06,27,05,30,15.10
2015,06,27,05,31,15.10
2015,06,27,05,32,15.10
2015,06,27,05,33,15.10
2015,06,27,05,34,15.10
2015,06,27,05,35,15.10
2015,06,27,05,36,15.10
2015,06,27,05,37,15.10
2015,06,27,05,38,15.10
2015,06,27,05,39,15.10
2015,06,27,05,40,15.10
2015,06,27,05,41,15.10
2015,06,27,05,42,15.10
2015,06,27,05,43,15.10
2015,06,27,05,44,15.10
2015,06,27,05,45,15.10
2015,06,27,05,46,15.10
2015,06,27,05,47,15.10
2015,06,27,05,48,15.10
2015,06,27,05,49,15.10
2015,06,27,05,50,15.10
2015,06,27,05,51,15.20
2015,06,27,05,52,15.20
2015,06,27,05,53,15.20
2015,06,27,05,54,15.20
2015,06,27,05,55,15.20
2015,06,27,05,56,15.20
2015,06,27,05,57,15.20
2015,06,27,05,58,15.20
2015,06,27,05,59,15.20
2015,06,27,06,00,15.20
2015,06,27,06,01,15.20
2015,06,27,06,02,15.20
2015,06,27,06,03,15.20
2015,06,27,06,04,15.20
2015,06,27,06,05,15.20
2015,06,27,06,06,15.20
2015,06,27,06,07,15.20
2015,06,27,06,08,15.20
2015,06,27,06,09,15.20
2015,06,27,06,10,15.20
2015,06,27,06,11,15.20
2015,06,27,06,12,15.20
2015,06,27,06,13,15.20
2015,06,27,06,14,15.20
2015,06,27,06,15,15.20
2015,06,27,06,16,15.20
2015,06,27,06,17,15.20
2015,06,27,06,18,15.20
2015,06,27,06,19,15.30
2015,06,27,06,20,15.30
2015,06,27,06,21,15.30
2015,06,27,06,22,15.30
2015,06,27,06,23,15.30
2015,06,27,06,24,15.30
2015,06,27,06,25,15.40
2015,06,27,06,26,15.40
2015,06,27,06,27,15.40
2015,06,27,06,28,15.40
2015,06,27,06,29,15.40
2015,06,27,06,30,15.40
2015,06,27,06,31,15.40
2015,06,27,06,32,15.40
2015,06,27,06,33,15.50
2015,06,27,06,34,15.50
2015,06,27,06,35,15.50
2015,06,27,06,36,15.50
2015,06,27,06,37,15.50
2015,06,27,06,38,15.50
2015,06,27,06,39,15.50
2015,06,27,06,40,15.60
2015,06,27,06,41,15.60
2015,06,27,06,42,15.60
2015,06,27,06,43,15.60
2015,06,27,06,44,15.60
2015,06,27,06,45,15.60
2015,06,27,06,46,15.70
2015,06,27,06,47,15.70
2015,06,27,06,48,15.70
2015,06,27,06,49,15.70
2015,06,27,06,50,15.70
2015,06,27,06,51,15.70
2015,06,27,06,52,15.70
2015,06,27,06,53,15.70
2015,06,27,06,54,15.70
2015,06,27,06,55,15.70
2015,06,27,06,56,15.80
2015,06,27,06,57,15.80
2015,06,27,06,58,15.80
2015,06,27,06,59,15.80
2015,06,27,07,00,15.80
2015,06,27,07,01,15.80
2015,06,27,07,02,15.80
2015,06,27,07,03,15.80
2015,06,27,07,04,15.80
2015,06,27,07,05,15.80
2015,06,27,07,06,15.80
2015,06,27,07,07,15.90
2015,06,27,07,08,15.90
2015,06,27,07,09,15.90
2015,06,27,07,10,16.00
2015,06,27,07,11,16.00
2015,06,27,07,12,16.00
2015,06,27,07,13,16.10
2015,06,27,07,14,16.10
2015,06,27,07,15,16.10
2015,06,27,07,16,16.10
2015,06,27,07,17,16.10
2015,06,27,07,18,16.20
2015,06,27,07,19,16.20
2015,06,27,07,20,16.20
2015,06,27,07,21,16.30
2015,06,27,07,22,16.30
2015,06,27,07,23,16.40
2015,06,27,07,24,16.40
2015,06,27,07,25,16.50
2015,06,27,07,26,16.50
2015,06,27,07,27,16.50
2015,06,27,07,28,16.60
2015,06,27,07,29,16.60
2015,06,27,07,30,16.60
2015,06,27,07,31,16.70
2015,06,27,07,32,16.70
2015,06,27,07,33,16.80
2015,06,27,07,34,16.80
2015,06,27,07,35,16.80
2015,06,27,07,36,16.90
2015,06,27,07,37,16.90
2015,06,27,07,38,17.00
2015,06,27,07,39,17.00
2015,06,27,07,40,17.10
2015,06,27,07,41,17.10
2015,06,27,07,42,17.10
2015,06,27,07,43,17.20
2015,06,27,07,44,17.20
2015,06,27,07,45,17.20
2015,06,27,07,46,17.30
2015,06,27,07,47,17.30
2015,06,27,07,48,17.30
2015,06,27,07,49,17.30
2015,06,27,07,50,17.30
2015,06,27,07,51,17.30
2015,06,27,07,52,17.30
2015,06,27,07,53,17.30
2015,06,27,07,54,17.30
2015,06,27,07,55,17.20
2015,06,27,07,56,17.20
2015,06,27,07,57,17.10
2015,06,27,07,58,17.10
2015,06,27,07,59,17.00
2015,06,27,08,00,17.00
2015,06,27,08,01,16.90
2015,06,27,08,02,16.90
2015,06,27,08,03,16.90
2015,06,27,08,04,16.80
2015,06,27,08,05,16.80
2015,06,27,08,06,16.90
2015,06,27,08,07,16.90
2015,06,27,08,08,16.90
2015,06,27,08,09,17.00
2015,06,27,08,10,17.10
2015,06,27,08,11,17.10
2015,06,27,08,12,17.20
2015,06,27,08,13,17.20
2015,06,27,08,14,17.30
2015,06,27,08,15,17.30
2015,06,27,08,16,17.40
2015,06,27,08,17,17.50
2015,06,27,08,18,17.60
2015,06,27,08,19,17.70
2015,06,27,08,20,17.70
2015,06,27,08,21,17.80
2015,06,27,08,22,17.90
2015,06,27,08,23,17.90
2015,06,27,08,24,18.00
2015,06,27,08,25,18.00
2015,06,27,08,26,17.90
2015,06,27,08,27,17.80
2015,06,27,08,28,17.70
2015,06,27,08,29,17.70
2015,06,27,08,30,17.60
2015,06,27,08,31,17.60
2015,06,27,08,32,17.50
2015,06,27,08,33,17.40
2015,06,27,08,34,17.40
2015,06,27,08,35,17.30
2015,06,27,08,36,17.30
2015,06,27,08,37,17.30
2015,06,27,08,38,17.30
2015,06,27,08,39,17.40
2015,06,27,08,40,17.40
2015,06,27,08,41,17.50
2015,06,27,08,42,17.60
2015,06,27,08,43,17.70
2015,06,27,08,44,17.70
2015,06,27,08,45,17.70
2015,06,27,08,46,17.80
2015,06,27,08,47,17.90
2015,06,27,08,48,17.90
2015,06,27,08,49,18.00
2015,06,27,08,50,18.00
2015,06,27,08,51,18.10
2015,06,27,08,52,18.20
2015,06,27,08,53,18.30
2015,06,27,08,54,18.30
2015,06,27,08,55,18.40
2015,06,27,08,56,18.50
2015,06,27,08,57,18.60
2015,06,27,08,58,18.70
2015,06,27,08,59,18.70
2015,06,27,09,00,18.70
2015,06,27,09,01,18.80
2015,06,27,09,02,18.80
2015,06,27,09,03,18.80
2015,06,27,09,04,18.80
2015,06,27,09,05,18.80
2015,06,27,09,06,18.80
2015,06,27,09,07,18.80
2015,06,27,09,08,18.80
2015,06,27,09,09,18.80
2015,06,27,09,10,18.80
2015,06,27,09,11,18.90
2015,06,27,09,12,19.00
2015,06,27,09,13,19.10
2015,06,27,09,14,19.10
2015,06,27,09,15,19.20
2015,06,27,09,16,19.20
2015,06,27,09,17,19.20
2015,06,27,09,18,19.20
2015,06,27,09,19,19.20
2015,06,27,09,20,19.20
2015,06,27,09,21,19.20
2015,06,27,09,22,19.20
2015,06,27,09,23,19.10
2015,06,27,09,24,19.10
2015,06,27,09,25,19.10
2015,06,27,09,26,19.00
2015,06,27,09,27,19.00
2015,06,27,09,28,19.00
2015,06,27,09,29,19.00
2015,06,27,09,30,19.00
2015,06,27,09,31,19.10
2015,06,27,09,32,19.10
2015,06,27,09,33,19.10
2015,06,27,09,34,19.10
2015,06,27,09,35,19.10
2015,06,27,09,36,19.10
2015,06,27,09,37,19.10
2015,06,27,09,38,19.20
2015,06,27,09,39,19.20
2015,06,27,09,40,19.20
2015,06,27,09,41,19.20
2015,06,27,09,42,19.20
2015,06,27,09,43,19.20
2015,06,27,09,44,19.20
2015,06,27,09,45,19.20
2015,06,27,09,46,19.20
2015,06,27,09,47,19.20
2015,06,27,09,48,19.20
2015,06,27,09,49,19.30
2015,06,27,09,50,19.30
2015,06,27,09,51,19.30
2015,06,27,09,52,19.40
2015,06,27,09,53,19.40
2015,06,27,09,54,19.40
2015,06,27,09,55,19.40
2015,06,27,09,56,19.40
2015,06,27,09,57,19.30
2015,06,27,09,58,19.30
2015,06,27,09,59,19.20
2015,06,27,10,00,19.20
2015,06,27,10,01,19.20
2015,06,27,10,02,19.20
2015,06,27,10,03,19.30
2015,06,27,10,04,19.40
2015,06,27,10,05,19.50
2015,06,27,10,06,19.50
2015,06,27,10,07,19.60
2015,06,27,10,08,19.60
2015,06,27,10,09,19.70
2015,06,27,10,10,19.70
2015,06,27,10,11,19.80
2015,06,27,10,12,19.90
2015,06,27,10,13,19.90
2015,06,27,10,14,19.90
2015,06,27,10,15,19.90
2015,06,27,10,16,20.00
2015,06,27,10,17,20.00
2015,06,27,10,18,20.10
2015,06,27,10,19,20.10
2015,06,27,10,20,20.10
2015,06,27,10,21,20.10
2015,06,27,10,22,20.10
2015,06,27,10,23,20.10
2015,06,27,10,24,20.10
2015,06,27,10,25,20.10
2015,06,27,10,26,20.10
2015,06,27,10,27,20.10
2015,06,27,10,28,20.10
2015,06,27,10,29,20.20
2015,06,27,10,30,20.30
2015,06,27,10,31,20.40
2015,06,27,10,32,20.40
2015,06,27,10,33,20.40
2015,06,27,10,34,20.50
2015,06,27,10,35,20.50
2015,06,27,10,36,20.50
2015,06,27,10,37,20.60
2015,06,27,10,38,20.70
2015,06,27,10,39,20.70
2015,06,27,10,40,20.70
2015,06,27,10,41,20.70
2015,06,27,10,42,20.80
2015,06,27,10,43,20.80
2015,06,27,10,44,20.80
2015,06,27,10,45,20.80
2015,06,27,10,46,20.90
2015,06,27,10,47,20.90
2015,06,27,10,48,21.00
2015,06,27,10,49,21.00
2015,06,27,10,50,21.00
2015,06,27,10,51,21.10
2015,06,27,10,52,21.10
2015,06,27,10,53,21.20
2015,06,27,10,54,21.20
2015,06,27,10,55,21.20
2015,06,27,10,56,21.30
2015,06,27,10,57,21.40
2015,06,27,10,58,21.50
2015,06,27,10,59,21.50
2015,06,27,11,00,21.60
2015,06,27,11,01,21.50
2015,06,27,11,02,21.50
2015,06,27,11,03,21.50
2015,06,27,11,04,21.50
2015,06,27,11,05,21.50
2015,06,27,11,06,21.60
2015,06,27,11,07,21.60
2015,06,27,11,08,21.70
2015,06,27,11,09,21.70
2015,06,27,11,10,21.80
2015,06,27,11,11,21.90
2015,06,27,11,12,21.90
2015,06,27,11,13,21.90
2015,06,27,11,14,21.90
2015,06,27,11,15,21.90
2015,06,27,11,16,21.90
2015,06,27,11,17,21.90
2015,06,27,11,18,22.00
2015,06,27,11,19,22.10
2015,06,27,11,20,22.20
2015,06,27,11,21,22.40
2015,06,27,11,22,22.50
2015,06,27,11,23,22.40
2015,06,27,11,24,22.30
2015,06,27,11,25,22.10
2015,06,27,11,26,22.00
2015,06,27,11,27,21.80
2015,06,27,11,28,21.80
2015,06,27,11,29,21.80
2015,06,27,11,30,21.70
2015,06,27,11,31,21.80
2015,06,27,11,32,21.70
2015,06,27,11,33,21.70
2015,06,27,11,34,21.70
2015,06,27,11,35,21.60
2015,06,27,11,36,21.60
2015,06,27,11,37,21.60
2015,06,27,11,38,21.60
2015,06,27,11,39,21.60
2015,06,27,11,40,21.70
2015,06,27,11,41,21.70
2015,06,27,11,42,21.70
2015,06,27,11,43,21.70
2015,06,27,11,44,21.70
2015,06,27,11,45,21.70
2015,06,27,11,46,21.70
2015,06,27,11,47,21.70
2015,06,27,11,48,21.70
2015,06,27,11,49,21.70
2015,06,27,11,50,21.70
2015,06,27,11,51,21.70
2015,06,27,11,52,21.70
2015,06,27,11,53,21.70
2015,06,27,11,54,21.70
2015,06,27,11,55,21.70
2015,06,27,11,56,21.70
2015,06,27,11,57,21.80
2015,06,27,11,58,21.80
2015,06,27,11,59,21.90
2015,06,27,12,00,22.00
2015,06,27,12,01,22.10
2015,06,27,12,02,22.20
2015,06,27,12,03,22.30
2015,06,27,12,04,22.40
2015,06,27,12,05,22.40
2015,06,27,12,06,22.40
2015,06,27,12,07,22.50
2015,06,27,12,08,22.60
2015,06,27,12,09,22.60
2015,06,27,12,10,22.70
2015,06,27,12,11,22.70
2015,06,27,12,12,22.70
2015,06,27,12,13,22.70
2015,06,27,12,14,22.80
2015,06,27,12,15,22.90
2015,06,27,12,16,22.90
2015,06,27,12,17,22.80
2015,06,27,12,18,22.80
2015,06,27,12,19,22.90
2015,06,27,12,20,23.00
2015,06,27,12,21,23.00
2015,06,27,12,22,23.10
2015,06,27,12,23,23.20
2015,06,27,12,24,23.30
2015,06,27,12,25,23.40
2015,06,27,12,26,23.50
2015,06,27,12,27,23.60
2015,06,27,12,28,23.70
2015,06,27,12,29,23.70
2015,06,27,12,30,23.70
2015,06,27,12,31,23.70
2015,06,27,12,32,23.70
2015,06,27,12,33,23.70
2015,06,27,12,34,23.70
2015,06,27,12,35,23.60
2015,06,27,12,36,23.60
2015,06,27,12,37,23.60
2015,06,27,12,38,23.70
2015,06,27,12,39,23.70
2015,06,27,12,40,23.80
2015,06,27,12,41,23.90
2015,06,27,12,42,24.00
2015,06,27,12,43,24.00
2015,06,27,12,44,23.90
2015,06,27,12,45,23.90
2015,06,27,12,46,23.80
2015,06,27,12,47,23.80
2015,06,27,12,48,23.70
2015,06,27,12,49,23.70
2015,06,27,12,50,23.70
2015,06,27,12,51,23.70
2015,06,27,12,52,23.70
2015,06,27,12,53,23.70
2015,06,27,12,54,23.70
2015,06,27,12,55,23.70
2015,06,27,12,56,23.70
2015,06,27,12,57,23.80
2015,06,27,12,58,23.80
2015,06,27,12,59,23.90
2015,06,27,13,00,24.10
2015,06,27,13,01,24.20
2015,06,27,13,02,24.30
2015,06,27,13,03,24.40
2015,06,27,13,04,24.50
2015,06,27,13,05,24.60
2015,06,27,13,06,24.70
2015,06,27,13,07,24.80
2015,06,27,13,08,24.80
2015,06,27,13,09,24.80
2015,06,27,13,10,24.90
2015,06,27,13,11,25.00
2015,06,27,13,12,25.10
2015,06,27,13,13,25.20
2015,06,27,13,14,25.20
2015,06,27,13,15,25.30
2015,06,27,13,16,25.30
2015,06,27,13,17,25.30
2015,06,27,13,18,25.30
2015,06,27,13,19,25.30
2015,06,27,13,20,25.30
2015,06,27,13,21,25.40
2015,06,27,13,22,25.50
2015,06,27,13,23,25.60
2015,06,27,13,24,25.60
2015,06,27,13,25,25.70
2015,06,27,13,26,25.80
2015,06,27,13,27,25.90
2015,06,27,13,28,26.00
2015,06,27,13,29,26.10
2015,06,27,13,30,26.20
2015,06,27,13,31,26.30
2015,06,27,13,32,26.40
2015,06,27,13,33,26.40
2015,06,27,13,34,26.50
2015,06,27,13,35,26.60
2015,06,27,13,36,26.60
2015,06,27,13,37,26.60
2015,06,27,13,38,26.50
2015,06,27,13,39,26.40
2015,06,27,13,40,26.40
2015,06,27,13,41,26.30
2015,06,27,13,42,26.20
2015,06,27,13,43,26.20
2015,06,27,13,44,26.20
2015,06,27,13,45,26.30
2015,06,27,13,46,26.30
2015,06,27,13,47,26.30
2015,06,27,13,48,26.30
2015,06,27,13,49,26.30
2015,06,27,13,50,26.30
2015,06,27,13,51,26.30
2015,06,27,13,52,26.40
2015,06,27,13,53,26.50
2015,06,27,13,54,26.60
2015,06,27,13,55,26.70
2015,06,27,13,56,26.80
2015,06,27,13,57,27.00
2015,06,27,13,58,27.00
2015,06,27,13,59,27.10
2015,06,27,14,00,27.10
2015,06,27,14,01,27.10
2015,06,27,14,02,27.20
2015,06,27,14,03,27.20
2015,06,27,14,04,27.30
2015,06,27,14,05,27.30
2015,06,27,14,06,27.30
2015,06,27,14,07,27.30
2015,06,27,14,08,27.30
2015,06,27,14,09,27.40
2015,06,27,14,10,27.50
2015,06,27,14,11,27.60
2015,06,27,14,12,27.60
2015,06,27,14,13,27.60
2015,06,27,14,14,27.60
2015,06,27,14,15,27.60
2015,06,27,14,16,27.70
2015,06,27,14,17,27.70
2015,06,27,14,18,27.70
2015,06,27,14,19,27.70
2015,06,27,14,20,27.80
2015,06,27,14,21,27.90
2015,06,27,14,22,27.90
2015,06,27,14,23,27.80
2015,06,27,14,24,27.90
2015,06,27,14,25,27.90
2015,06,27,14,26,27.90
2015,06,27,14,27,27.90
2015,06,27,14,28,27.90
2015,06,27,14,29,28.00
2015,06,27,14,30,28.10
2015,06,27,14,31,28.10
2015,06,27,14,32,28.10
2015,06,27,14,33,28.10
2015,06,27,14,34,28.10
2015,06,27,14,35,28.10
2015,06,27,14,36,28.10
2015,06,27,14,37,28.00
2015,06,27,14,38,28.00
2015,06,27,14,39,27.90
2015,06,27,14,40,27.90
2015,06,27,14,41,27.90
2015,06,27,14,42,27.90
2015,06,27,14,43,27.90
2015,06,27,14,44,27.90
2015,06,27,14,45,27.90
2015,06,27,14,46,27.90
2015,06,27,14,47,27.90
2015,06,27,14,48,27.90
2015,06,27,14,49,28.00
2015,06,27,14,50,28.00
2015,06,27,14,51,28.10
2015,06,27,14,52,28.20
2015,06,27,14,53,28.30
2015,06,27,14,54,28.30
2015,06,27,14,55,28.30
2015,06,27,14,56,28.30
2015,06,27,14,57,28.30
2015,06,27,14,58,28.30
2015,06,27,14,59,28.30
2015,06,27,15,00,28.40
2015,06,27,15,01,28.50
2015,06,27,15,02,28.50
2015,06,27,15,03,28.60
2015,06,27,15,04,28.60
2015,06,27,15,05,28.60
2015,06,27,15,06,28.70
2015,06,27,15,07,28.70
2015,06,27,15,08,28.70
2015,06,27,15,09,28.60
2015,06,27,15,10,28.60
2015,06,27,15,11,28.60
2015,06,27,15,12,28.60
2015,06,27,15,13,28.70
2015,06,27,15,14,28.70
2015,06,27,15,15,28.70
2015,06,27,15,16,28.70
2015,06,27,15,17,28.70
2015,06,27,15,18,28.70
2015,06,27,15,19,28.70
2015,06,27,15,20,28.70
2015,06,27,15,21,28.80
2015,06,27,15,22,28.90
2015,06,27,15,23,29.00
2015,06,27,15,24,29.10
2015,06,27,15,25,29.10
2015,06,27,15,26,29.10
2015,06,27,15,27,29.10
2015,06,27,15,28,29.10
2015,06,27,15,29,29.20
2015,06,27,15,30,29.30
2015,06,27,15,31,29.30
2015,06,27,15,32,29.40
2015,06,27,15,33,29.40
2015,06,27,15,34,29.50
2015,06,27,15,35,29.50
2015,06,27,15,36,29.60
2015,06,27,15,37,29.60
2015,06,27,15,38,29.70
2015,06,27,15,39,29.80
2015,06,27,15,40,29.80
2015,06,27,15,41,29.80
2015,06,27,15,42,29.80
2015,06,27,15,43,29.80
2015,06,27,15,44,29.80
2015,06,27,15,45,29.80
2015,06,27,15,46,29.70
2015,06,27,15,47,29.80
2015,06,27,15,48,29.70
2015,06,27,15,49,29.70
2015,06,27,15,50,29.70
2015,06,27,15,51,29.70
2015,06,27,15,52,29.70
2015,06,27,15,53,29.70
2015,06,27,15,54,29.70
2015,06,27,15,55,29.70
2015,06,27,15,56,29.70
2015,06,27,15,57,29.70
2015,06,27,15,58,29.70
2015,06,27,15,59,29.80
2015,06,27,16,00,29.90
2015,06,27,16,01,29.90
2015,06,27,16,02,30.00
2015,06,27,16,03,30.00
2015,06,27,16,04,30.00
2015,06,27,16,05,30.00
2015,06,27,16,06,30.00
2015,06,27,16,07,30.00
2015,06,27,16,08,30.10
2015,06,27,16,09,30.00
2015,06,27,16,10,30.10
2015,06,27,16,11,30.10
2015,06,27,16,12,30.20
2015,06,27,16,13,30.20
2015,06,27,16,14,30.10
2015,06,27,16,15,30.10
2015,06,27,16,16,30.10
2015,06,27,16,17,30.10
2015,06,27,16,18,30.20
2015,06,27,16,19,30.20
2015,06,27,16,20,30.20
2015,06,27,16,21,30.30
2015,06,27,16,22,30.30
2015,06,27,16,23,30.30
2015,06,27,16,24,30.20
2015,06,27,16,25,30.20
2015,06,27,16,26,30.20
2015,06,27,16,27,30.20
2015,06,27,16,28,30.20
2015,06,27,16,29,30.20
2015,06,27,16,30,30.30
2015,06,27,16,31,30.30
2015,06,27,16,32,30.30
2015,06,27,16,33,30.30
2015,06,27,16,34,30.40
2015,06,27,16,35,30.40
2015,06,27,16,36,30.50
2015,06,27,16,37,30.50
2015,06,27,16,38,30.50
2015,06,27,16,39,30.40
2015,06,27,16,40,30.40
2015,06,27,16,41,30.50
2015,06,27,16,42,30.60
2015,06,27,16,43,30.60
2015,06,27,16,44,30.60
2015,06,27,16,45,30.60
2015,06,27,16,46,30.60
2015,06,27,16,47,30.70
2015,06,27,16,48,30.80
2015,06,27,16,49,30.80
2015,06,27,16,50,30.80
2015,06,27,16,51,30.80
2015,06,27,16,52,30.80
2015,06,27,16,53,30.80
2015,06,27,16,54,30.80
2015,06,27,16,55,30.80
2015,06,27,16,56,30.80
2015,06,27,16,57,30.80
2015,06,27,16,58,30.90
2015,06,27,16,59,30.90
2015,06,27,17,00,31.00
2015,06,27,17,01,31.10
2015,06,27,17,02,31.10
2015,06,27,17,03,31.10
2015,06,27,17,04,31.10
2015,06,27,17,05,31.10
2015,06,27,17,06,31.10
2015,06,27,17,07,31.20
2015,06,27,17,08,31.20
2015,06,27,17,09,31.20
2015,06,27,17,10,31.20
2015,06,27,17,11,31.20
2015,06,27,17,12,31.20
2015,06,27,17,13,31.20
2015,06,27,17,14,31.20
2015,06,27,17,15,31.20
2015,06,27,17,16,31.10
2015,06,27,17,17,31.10
2015,06,27,17,18,31.20
2015,06,27,17,19,31.20